Regional Weather Roundup
Issued by NWS

Home | Current Version | Previous Version | Graphics & Text | Print | Product List | Glossary Off
Versions: 1 2 3 4 5 6 7 8 9 10 11 12 13 14 15 16 17 18 19 20 21 22 23 24 25 26 27 28 29 30 31 32 33 34 35 36 37 38 39 40 41 42 43 44 45 46 47 48 49 50

000
ASUS43 KMKX 200811
RWRWI

WISCONSIN REGIONAL WEATHER ROUNDUP
NATIONAL WEATHER SERVICE MILWAUKEE/SULLIVAN WI
300 AM CDT SUN APR 20 2014

NOTE: "FAIR" INDICATES FEW OR NO CLOUDS BELOW 12,000 FEET WITH NO
SIGNIFICANT WEATHER AND/OR OBSTRUCTIONS TO VISIBILITY.

WIZ001-002-006>008-014>016-023>028-200900-
NORTHWEST WISCONSIN

CITY           SKY/WX    TMP DP  RH WIND       PRES   REMARKS
SUPERIOR ARPT  CLEAR     27  26  99 CALM      30.02F FOG
ASHLAND        PTCLDY    40  39  97 SW5       30.02R
HAYWARD        MOCLDY    38  35  89 CALM      30.02S
SIREN          PTCLDY    36  35  96 N3        30.02S
RICE LAKE      LGT RAIN  49  47  95 CALM      30.04S
LADYSMITH      RAIN      51  46  80 S6        30.05S
EAU CLAIRE     CLOUDY    53  46  77 CALM      30.03R
MENOMONIE      CLOUDY    52  46  82 NW6       30.03R
NEW RICHMOND   HVY RAIN  51  51 100 S7        30.02F VSB 3/4
OSCEOLA        FOG       49  49 100 CALM      30.04S VSB<1/4
$$

WIZ003>005-009-010-017-018-200900-
NORTH CENTRAL WISCONSIN

CITY           SKY/WX    TMP DP  RH WIND       PRES   REMARKS
WOODRUFF       CLOUDY    46  38  75 S6        30.04S
RHINELANDER    CLOUDY    47  37  68 S6        30.07S
EAGLE RIVER    LGT RAIN  42  40  91 S3        30.05F
LAND O LAKES   CLOUDY    46  37  68 S5        30.06S
PHILLIPS       LGT RAIN  48  42  79 S5        30.03S
TOMAHAWK       DRIZZLE   43  40  89 CALM      30.06F
MEDFORD        CLOUDY    51  41  68 CALM      30.06R
MERRILL        CLOUDY    54  39  57 CALM      30.06F
$$

WIZ029-030-035-036-043>047-200900-
CENTRAL WISCONSIN

CITY           SKY/WX    TMP DP  RH WIND       PRES   REMARKS
WAUSAU         LGT RAIN  50  42  74 SE8       30.07S
MOSINEE        DRIZZLE   48  43  81 SE7       30.09F
MARSHFIELD     LGT RAIN  54  41  61 S12       30.06F
STEVENS POINT  CLOUDY    53  36  52 S7        30.10S
WAUPACA        CLOUDY    55  37  50 S8        30.12S
WAUTOMA        CLOUDY    55  38  52 S8        30.12S
WISC RAPIDS    CLOUDY    57  35  43 S9        30.09S
CAMP DOUGLAS   CLOUDY    61  35  38 S12       30.07F
$$

WIZ011>013-019>022-031-037>040-048>050-200900-
NORTHEAST WISCONSIN

CITY           SKY/WX    TMP DP  RH WIND       PRES   REMARKS
ANTIGO         DRIZZLE   44  39  82 S10       30.10S
STURGEON BAY   CLOUDY    46  34  61 S16       30.17R
GREEN BAY      CLOUDY    51  39  63 S10       30.14S
MANITOWOC      CLOUDY    46  35  65 S18       30.18F
APPLETON       CLOUDY    50  36  57 S10       30.14S
CLINTONVILLE   CLOUDY    52  37  58 S6        30.12S
OSHKOSH        CLOUDY    54  37  52 S16       30.12F
$$

WIZ032>034-041-042-053>061-200900-
SOUTHWEST WISCONSIN

CITY           SKY/WX    TMP DP  RH WIND       PRES   REMARKS
LA CROSSE      CLOUDY    62  38  40 S13       30.05S
SPARTA         CLOUDY    63  33  32 SW3       30.07S
VIROQUA        FAIR      59  37  43 S12       30.08S
BOSCOBEL       CLOUDY    62  37  39 S9        30.10F
PRAIRIE DU CHI CLOUDY    63  35  35 SE5       30.09S
PLATTEVILLE    MOCLDY    57  38  48 SE9       30.14F
$$

WIZ056-057-062-063-064-067-068-200900-
SOUTH CENTRAL WISCONSIN

CITY           SKY/WX    TMP DP  RH WIND       PRES   REMARKS
BARABOO/DELLS  CLOUDY    56  35  45 S15       30.11S
LONE ROCK      MOCLDY    59  36  42 S10       30.12S
WATERTOWN      PTCLDY    47  37  66 S5        30.16F
MADISON        PTCLDY    54  38  54 S12       30.15F
MIDDLETON      FAIR      56  35  46 S15G24    30.14F
MONROE         PTCLDY    53  37  56 S16       30.15F
JANESVILLE     PTCLDY    54  36  50 S10       30.17F
$$

WIZ051-052-058>065-066-070>072-200900-
SOUTHEAST WISCONSIN

CITY           SKY/WX    TMP DP  RH WIND       PRES   REMARKS
MILWAUKEE      PTCLDY    49  32  52 S13       30.21F
WAUKESHA       CLEAR     46  34  61 S8        30.20S
MILWAUKEE/TIMM CLEAR     46  32  57 S9        30.20F
RACINE         PTCLDY    47  32  56 S16G24    30.23F
BURLINGTON     PTCLDY    36  33  92 CALM      30.20F
KENOSHA        CLEAR     48  33  56 S12       30.22S
FOND DU LAC    CLOUDY    53  37  54 S14       30.14F
SHEBOYGAN      PTCLDY    46  35  65 S12       30.18F
WEST BEND      MOCLDY    46  34  61 S3        30.18F
JUNEAU         PTCLDY    50  33  51 S13       30.17F
$$

LSZ147-162-200900-
LAKE SUPERIOR

STATION/POSITION TIME  TEMP    WIND        PRES    WAVE
                       AIR SEA DIR/SP/G            HT/PER
                 (UTC) (F)     (DEG/KT/KT) (MB)    (FT/S)
DEVILS ISLAND    0800   33        CALM     1017.1S
PORT WING        0700   28      CALM  /  2 1016.6
SAXON HARBOR     0700             CALM     1015.9F
$$

LMZ867-665-643>646-200900-
LAKE MICHIGAN

STATION/POSITION TIME  TEMP    WIND        PRES    WAVE
                       AIR SEA DIR/SP/G            HT/PER
                 (UTC) (F)     (DEG/KT/KT) (MB)    (FT/S)
NORTHPORT PIER   0700   36     120/  2/  3 1022.4F
SISTER BAY       0709   41     170/  5/  5   N/A
KEWAUNEE LAKESHO 0700   41     170/ 14/ 16 1022.4F
SHEBOYGAN LAKESH 0800   42     170/ 19/ 20 1022.8F
PORT WASHINGTON  0700   41     170/  4/  5 1023.7S
MILWAUKEE LAKESH 0700   45     150/ 11/ 12   N/A
KENOSHA   LAKESH 0800   44     180/ 13/ 17   N/A
$$

TC  - TEMPERATURE IN CELSIUS
VSB - VISIBILITY IN STATUTE MILES
WCI - WIND CHILL INDEX
HX  - HEAT INDEX




USA.gov is the U.S. government's official web portal to all federal, state and local government web resources and services.